sat.trackr.live / text

‹ back to catalog

BEIDOU-3 M13 (C32)

NORAD 43622 · 2018-072A

PAYLOAD ACTIVE UNKNOWN

§ Identity

Operator
Country
PRC
Launch date
2018-09-19
Launch site
XICLF
Launch vehicle
Mass (kg)
RCS (m²)

Purposes: earth_obs, nav

External: N2YO · Heavens-Above · Gunter

§ Orbital elements

Epoch: 2026-08-31T17:01:47.672256Z

Period
773.23 min
Inclination
56.6935°
Eccentricity
0.0004403
Mean motion
1.86231333 rev/d
Perigee alt
21,515.7 km
Apogee alt
21,540.3 km
Semi-major
27,906.2 km
B*
0.0000e+0
RAAN
60.1708°
Arg perigee
332.2723°
Mean anomaly
27.7441°
Rev number
5,406

§ Raw data

BEIDOU-3 M13 (C32)1 43622U 18072A   26243.70957954 -.00000006  00000+0  00000+0 0  99932 43622  56.6935  60.1708 0004403 332.2723  27.7441  1.86231333 54068

JSON: /api/v1/satellites/43622 · /tle

For live sub-satellite position, see the globe view (requires WebGL).

§ Visibility from observer

Set your observer location to see the next 7 days of passes ≥ 10°. The values pass through the URL so the page stays shareable.

No JS? Fill the form by hand. The geolocation button needs JavaScript.